Regional Weather Roundup
Issued by NWS Cleveland, OH

Current Version | Previous Version | Text Only | Print | Product List | Glossary On
Versions: 1 2 3 4 5 6 7 8 9 10 11 12 13 14 15 16 17 18 19 20 21 22 23 24 25 26 27 28 29 30 31 32 33 34 35 36 37 38 39 40 41 42 43 44 45 46 47 48 49 50
000 ASUS41 KCLE 220710 RWRCLE OHIO REGIONAL WEATHER ROUNDUP NATIONAL WEATHER SERVICE CLEVELAND, OH 300 AM EDT WED OCT 22 2014 NOTE: "FAIR" INDICATES FEW OR NO CLOUDS BELOW 12,000 FEET WITH NO SIGNIFICANT WEATHER AND/OR OBSTRUCTIONS TO VISIBILITY. OHZ001>008-015>018-024>027-034-035-043-044-220800- NORTHWEST OHIO CITY SKY/WX TMP DP RH WIND PRES REMARKS DEFIANCE CLOUDY 45 37 73 N8 30.23S FINDLAY CLOUDY 45 38 76 NW8 30.19R TOLEDO EXPRESS CLOUDY 44 37 76 N8 30.21R TOLEDO EXEC CLOUDY 46 37 71 N10 30.21R LIMA CLOUDY 44 37 76 N9 30.19S $$ OHZ009>014-019>023-028>033-038-089-220800- NORTHEAST OHIO CITY SKY/WX TMP DP RH WIND PRES REMARKS CLE-HOPKINS LGT RAIN 48 44 86 N10 30.16R CLE-LAKEFRONT CLOUDY 50 44 80 NE15G22 30.13R CUY CO. ARPT NOT AVBL LORAIN-ELYRIA CLOUDY 47 44 90 N12 30.15R ASHTABULA CLOUDY 46 43 89 VRB7 30.12R AKRON-CANTON LGT RAIN 47 44 90 N10 30.10R FOG WOOSTER LGT RAIN 47 44 90 N9 30.12R FOG MANSFIELD CLOUDY 44 44 100 NW10 30.13S YOUNGSTOWN CLOUDY 46 44 93 N9 30.08R $$ OHZ042-051>053-060>062-070>072-077>081-220800- SOUTHWEST OHIO CITY SKY/WX TMP DP RH WIND PRES REMARKS CINC-COVINGTON CLOUDY 46 36 66 N10 30.18S CINC-LUNKEN CLOUDY 47 36 65 N8 30.20S HAMILTON CLOUDY 47 38 71 N8 30.21R DAYTON CLOUDY 45 38 76 N9 30.21R WRIGHT-PAT AFB CLOUDY 45 39 81 N6 30.19R DAYTON GENERAL CLOUDY 45 38 76 N8 30.18S WILMINGTON CLOUDY 44 38 79 N13 30.17S $$ OHZ036-037-039>041-045>050-054>059-063>069-073>076-082>088-220800- CENTRAL AND SOUTHEAST OHIO CITY SKY/WX TMP DP RH WIND PRES REMARKS COLUMBUS CLOUDY 44 41 89 N10 30.15R OSU AIRPORT CLOUDY 43 41 93 N10 30.15S FOG BOLTON FIELD CLOUDY 43 41 94 NW10G17 30.16S RICKENBACK AFB CLOUDY 44 40 86 N12 30.15R NEWARK CLOUDY 46 41 82 NW9 30.13R MARION CLOUDY 43 40 89 N9 30.16S LANCASTER CLOUDY 45 41 86 N10 30.14S ZANESVILLE CLOUDY 45 43 93 NW8 30.10S FOG NEW PHILLY CLOUDY 48 45 89 NW6 30.10R $$

USA.gov is the U.S. government's official web portal to all federal, state and local government web resources and services.